Weather in Sennar

Sudan     13°32′41″N   33°36′34″E
temp.,
°C
wind,
m/s
gust,
m/s
humid.,
%
clouds,
%
prec.,
mm/h
press.,
hPa
HPBL,
m
13 august, sat
sat1323:00+25sw4778100 0.4 1011300
02:00+24sw4788100 5.3 1010339
05:00+23sw4691100 3.6 1011332
08:00+23wsw5788100 5.3 1012491
11:00+26sw6671100 0.0 1011899
14:00+29sw4459100 0.0 10091255
17:00+28sw4463100 0.0 1008907
20:00+26sw4674100 0.0 1010405
14 august, sun
sun1423:00+24ssw578487 0.0 1010308
02:00+23ssw588611 0.0 1010369
05:00+23s6108717 0.0 1010425
08:00+24ssw8117954 0.0 1011576
11:00+27ssw6667100 0.0 1011793
14:00+30sw7655100 0.0 10081392
17:00+28ssw5662100 0.0 1007708
20:00+25s5776100 0.0 1010364
15 august, mon
mon1523:00+24s4680100 0.0 1011301
02:00+23s4882100 0.0 1009321
05:00+23s4783100 0.0 1010345
08:00+24s5881100 0.0 1012386
11:00+26ssw6969100 0.0 1011650
14:00+28sw4662100 0.0 1008411
17:00+28nnw1264100 0.1 100877
20:00+25sse2378100 0.1 101079
16 august, tue
tue1623:00+25s4880100 0.1 1011413
02:00+24sse3685100 0.5 1009327
05:00+24ssw5885100 0.0 1010397
08:00+25ssw787557 0.0 1011550
11:00+27ssw786991 0.0 1011790
14:00+26sw4771100 0.0 1010688
17:00+27ssw6765100 0.0 1009863
20:00+25s6976100 0.2 1011409
17 august, wed
wed1723:00+23s5987100 2.0 1012339
02:00+22sse6109199 4.9 1011468
05:00+22s7129198 1.9 1011486
08:00+24ssw687473 2.3 1011396
11:00+28ssw885848 0.0 1010808
14:00+30ssw4348100 0.0 10081544
17:00+28ssw6557100 0.0 1008848
20:00+24ssw7976100 0.0 1010442